[[{"header":{"parameterUnit":"m.s-1","parameterCategory":1,"la1":30.2991,"la2":30.254,"lo1":-89.0895,"lo2":-89.0444,"dy":0.0017,"dx":0.0017,"nx":28,"ny":28,"refTime":"2025-04-11T09:00:00:Z","depth":0,"parameterNumber":2,"parameterNumberName":"U-component_of_WINDS"},"data":[0,0,0,0,0,0,0,0,0,0,0,0,0,0,0,0,0,0,0,0,0,0,0,0,0,0,0,0,0,0,0,0,0,0,0,0,0,0,0,0,0,0,0,0,0,0,0,0,0,0,0,0,0,0,0,0,0,0,1.7608,1.7608,0,1.7674,1.7675,1.7675,1.7699,1.7699,1.7699,1.7699,1.7768,1.777,1.7772,0,0,0,0,0,0,0,0,0,0,0,0,0,1.7505,1.7507,1.7608,1.7608,1.7609,1.7674,1.7675,1.7676,1.7699,1.7699,1.7699,1.7698,1.7768,1.777,1.7773,0,0,0,0,0,0,0,0,0,0,0,0,0,1.7558,1.7508,1.7607,1.7629,1.7631,1.7674,1.7675,1.7676,1.7699,1.7699,1.7699,1.7698,1.7767,1.777,1.7773,1.7799,0,0,1.7782,1.7784,0,0,0,0,0,0,0,0,1.7555,1.7562,1.7625,1.7627,1.763,1.7678,1.7664,1.7717,1.7699,1.7674,1.7699,1.7698,1.7739,1.7744,1.7757,1.7803,1.7806,1.7783,1.7785,1.7786,1.7787,0,0,0,0,0,0,0,1.7552,1.7559,1.7634,1.7626,1.7629,1.7636,1.7643,1.7674,1.7707,1.7676,1.7678,1.7685,1.774,1.7754,1.7759,1.7807,1.7783,1.7785,1.7787,1.7789,1.788,1.788,0,0,0,0,0,0,1.7544,1.7556,1.7632,1.7636,1.7591,1.7638,1.7646,1.7663,1.7707,1.7713,1.7685,1.7686,1.7749,1.7755,1.7762,1.7797,1.7786,1.7789,1.7791,1.7879,1.788,1.788,0,0,0,0,0,0,1.7542,1.755,1.7629,1.7597,1.7607,1.7641,1.7659,1.7665,1.7679,1.7714,1.7721,1.7693,1.7749,1.7757,1.779,1.7799,1.779,1.7793,1.7879,1.7879,1.788,1.7866,0,0,0,0,0,0,1.7539,1.7549,1.7559,1.7597,1.7609,1.7655,1.766,1.7666,1.7684,1.7685,1.7724,1.773,1.7749,1.7785,1.7793,1.7804,1.7796,1.7878,1.7879,1.788,1.7866,1.7866,1.7867,0,0,0,0,0,1.7535,1.7552,1.7559,1.7568,1.7621,1.7656,1.7663,1.7685,1.7684,1.7695,1.7718,1.7728,1.7797,1.7789,1.7798,1.7809,1.7877,1.7879,1.788,1.7866,1.7866,1.7867,0,0,0,0,0,0,1.7514,1.7557,1.7565,1.7595,1.7622,1.766,1.7673,1.7684,1.7712,1.7712,1.7739,1.7747,1.7778,1.7797,1.7787,1.7838,1.7838,1.7841,1.7824,1.7825,1.7826,1.782,1.7798,0,0,0,0,0,1.7513,1.7537,1.7574,1.7597,1.7609,1.7639,1.7655,1.767,1.7698,1.771,1.7735,1.7764,1.7792,1.781,1.7838,1.7869,1.7879,1.7882,1.7882,1.7883,1.7885,1.7905,1.7907,1.7885,1.7885,1.7884,0,0,1.7511,1.7538,1.7551,1.7593,1.7615,1.7641,1.7648,1.7674,1.7693,1.7714,1.7746,1.7767,1.78,1.7833,1.7849,1.785,1.7894,1.7884,1.7884,1.7886,1.7906,1.7909,1.791,1.7885,1.7885,1.7885,0,0,1.752,1.7542,1.7564,1.7587,1.7621,1.7641,1.7646,1.7683,1.7697,1.773,1.7747,1.7771,1.7819,1.7843,1.7861,1.7882,1.7893,1.7891,1.7893,1.7912,1.7914,1.7915,1.7924,1.7927,1.7893,1.7893,1.7893,0,1.7514,1.7551,1.7575,1.76,1.7619,1.7639,1.7663,1.7684,1.7725,1.7738,1.7739,1.78,1.7824,1.7864,1.7869,1.7883,1.7891,1.7886,1.7911,1.7913,1.7915,1.7924,1.7927,1.7892,1.7893,1.7893,1.7893,0,1.7542,1.7568,1.7582,1.7621,1.7642,1.7666,1.7695,1.7713,1.7727,1.7748,1.7783,1.7813,1.7848,1.7859,1.7872,1.7901,1.7901,1.7906,1.7906,1.7917,1.7925,1.7928,1.7892,1.7892,1.7892,1.7892,0,0,1.7538,1.7591,1.7596,1.7615,1.7655,1.7676,1.7703,1.7737,1.7753,1.7782,1.7805,1.7847,1.7853,1.7873,1.789,1.7907,1.7924,1.7911,1.7912,1.7913,1.7959,1.7954,1.7958,1.7932,1.7933,1.7933,1.7956,0,1.7553,1.7599,1.7622,1.766,1.7685,1.7706,1.773,1.7758,1.7778,1.7804,1.7828,1.7857,1.7862,1.7875,1.7893,1.7918,1.7934,1.7917,1.7955,1.7956,1.7946,1.7962,1.7956,1.7976,1.796,1.796,1.7961,0,1.7575,1.7604,1.7643,1.7682,1.7694,1.7714,1.7748,1.7772,1.7806,1.782,1.7844,1.7861,1.7892,1.7891,1.7934,1.7922,1.794,1.7956,1.7957,1.7961,1.7959,1.7966,1.7983,1.7986,1.7966,1.7966,1.7965,0,1.7569,1.7617,1.7648,1.7663,1.7709,1.7723,1.7743,1.7776,1.7796,1.7827,1.784,1.7874,1.7893,1.792,1.7946,1.7943,1.7988,1.7989,1.8001,1.8001,1.8009,1.8008,1.8029,1.8021,1.802,1.802,1.802,0,1.7582,1.7606,1.7646,1.7664,1.7692,1.772,1.7747,1.7769,1.7799,1.7823,1.7844,1.7867,1.7901,1.7929,1.795,1.7984,1.7992,1.8005,1.801,1.8003,1.8001,1.8014,1.8014,1.8021,1.8021,1.8021,1.8021,0,1.7579,1.7607,1.7641,1.7683,1.7694,1.7713,1.7749,1.7769,1.7791,1.7822,1.7831,1.7867,1.7901,1.7931,1.7976,1.799,1.8025,1.8031,1.8013,1.8016,1.8027,1.8026,1.8057,1.8063,1.8051,1.8051,1.8051,0,1.7586,1.7604,1.7648,1.7666,1.7685,1.7713,1.7734,1.7763,1.7784,1.7825,1.784,1.7876,1.7905,1.7959,1.799,1.8025,1.8033,1.8042,1.8038,1.8031,1.8033,1.8032,1.8034,1.8041,1.8041,1.8041,1.8041,0,1.7594,1.7608,1.7636,1.767,1.7694,1.7722,1.7751,1.7764,1.7799,1.7822,1.7857,1.788,1.7927,1.7962,1.8001,1.8024,1.8039,1.8042,1.8047,1.8039,1.8028,1.8035,1.8013,1.8041,1.8041,1.8041,1.8041,1.8041,1.7597,1.7615,1.7649,1.768,1.7705,1.7732,1.7753,1.7779,1.7809,1.7848,1.7864,1.79,1.7936,1.7989,1.8012,1.8042,1.8044,1.8051,1.8053,1.8054,1.8053,1.8024,1.8049,1.8049,1.8049,1.8049,1.8049,0,1.7607,1.763,1.7659,1.7699,1.7724,1.7736,1.777,1.779,1.7821,1.7853,1.7882,1.7923,1.7959,1.7993,1.8031,1.8048,1.8056,1.8057,1.8056,1.8061,1.8048,1.804,1.805,1.805,1.805,1.805,1.805,1.805,1.7615,1.7647,1.7665,1.771,1.7734,1.7768,1.7787,1.7813,1.7838,1.7883,1.7912,1.7934,1.7968,1.8008,1.8042,1.8052,1.8064,1.8063,1.8075,1.8062,1.8062,1.8061,1.8054,1.8066,1.8066,1.8085,1.8085,1.8085]},{"header":{"parameterUnit":"m.s-1","parameterCategory":1,"la1":30.2991,"la2":30.254,"lo1":-89.0895,"lo2":-89.0444,"dy":0.0017,"dx":0.0017,"nx":28,"ny":28,"refTime":"2025-04-11T09:00:00:Z","depth":0,"parameterNumber":3,"parameterNumberName":"V-component_of_WINDS"},"data":[0,0,0,0,0,0,0,0,0,0,0,0,0,0,0,0,0,0,0,0,0,0,0,0,0,0,0,0,0,0,0,0,0,0,0,0,0,0,0,0,0,0,0,0,0,0,0,0,0,0,0,0,0,0,0,0,0,0,-6.0563,-6.0564,0,-6.0597,-6.0597,-6.0597,-6.0586,-6.0585,-6.0584,-6.0583,-6.0614,-6.0615,-6.0616,0,0,0,0,0,0,0,0,0,0,0,0,0,-6.0488,-6.049,-6.0563,-6.0564,-6.0564,-6.0597,-6.0597,-6.0597,-6.0586,-6.0585,-6.0584,-6.0583,-6.0613,-6.0615,-6.0617,0,0,0,0,0,0,0,0,0,0,0,0,0,-6.0521,-6.049,-6.0563,-6.0562,-6.0563,-6.0596,-6.0597,-6.0598,-6.0586,-6.0585,-6.0584,-6.0583,-6.0612,-6.0615,-6.0617,-6.0652,0,0,-6.0624,-6.0625,0,0,0,0,0,0,0,0,-6.0519,-6.0524,-6.0562,-6.0563,-6.0563,-6.0586,-6.0582,-6.0616,-6.0586,-6.0577,-6.0583,-6.0582,-6.0605,-6.0608,-6.0616,-6.0654,-6.0655,-6.0624,-6.0625,-6.0626,-6.0627,0,0,0,0,0,0,0,-6.0517,-6.0522,-6.0576,-6.0563,-6.0563,-6.056,-6.0563,-6.0588,-6.0596,-6.0578,-6.0577,-6.0581,-6.0605,-6.0614,-6.0617,-6.0655,-6.0624,-6.0626,-6.0627,-6.0628,-6.0726,-6.0728,0,0,0,0,0,0,-6.0515,-6.0521,-6.0575,-6.0577,-6.0538,-6.0562,-6.0566,-6.058,-6.0596,-6.0598,-6.0582,-6.0581,-6.0611,-6.0614,-6.0618,-6.0662,-6.0626,-6.0628,-6.0629,-6.0725,-6.0727,-6.0728,0,0,0,0,0,0,-6.0513,-6.052,-6.0574,-6.0549,-6.0556,-6.0565,-6.058,-6.0581,-6.059,-6.06,-6.0601,-6.059,-6.061,-6.0615,-6.0645,-6.0663,-6.0629,-6.0631,-6.0724,-6.0726,-6.0727,-6.075,0,0,0,0,0,0,-6.0511,-6.0519,-6.0533,-6.0549,-6.0557,-6.0601,-6.0581,-6.0582,-6.0594,-6.0593,-6.0607,-6.0609,-6.061,-6.0642,-6.0647,-6.0665,-6.0633,-6.0722,-6.0725,-6.0727,-6.0747,-6.0752,-6.0756,0,0,0,0,0,-6.0509,-6.0536,-6.0534,-6.054,-6.0574,-6.0602,-6.0606,-6.0608,-6.0596,-6.061,-6.0616,-6.0608,-6.066,-6.0645,-6.0651,-6.067,-6.0721,-6.0724,-6.0727,-6.0745,-6.0751,-6.0756,0,0,0,0,0,0,-6.0519,-6.0538,-6.0536,-6.057,-6.0585,-6.06,-6.0617,-6.0613,-6.063,-6.0628,-6.0628,-6.0632,-6.0663,-6.0669,-6.0652,-6.0707,-6.0689,-6.0693,-6.0701,-6.0707,-6.0711,-6.0708,-6.0635,0,0,0,0,0,-6.0526,-6.0548,-6.0563,-6.0592,-6.06,-6.0607,-6.0619,-6.062,-6.0634,-6.064,-6.0649,-6.0662,-6.0682,-6.0695,-6.0713,-6.0749,-6.0752,-6.0765,-6.077,-6.0773,-6.0777,-6.0798,-6.0804,-6.0738,-6.0738,-6.0738,0,0,-6.054,-6.0553,-6.0566,-6.0594,-6.0606,-6.0628,-6.0612,-6.0636,-6.0652,-6.0643,-6.0673,-6.068,-6.0695,-6.0729,-6.0744,-6.0735,-6.0796,-6.0777,-6.078,-6.0781,-6.0802,-6.0808,-6.0813,-6.074,-6.0739,-6.0739,0,0,-6.0575,-6.0587,-6.0614,-6.0627,-6.0646,-6.0651,-6.0658,-6.0675,-6.068,-6.071,-6.0704,-6.0724,-6.0757,-6.0769,-6.0779,-6.0824,-6.0818,-6.083,-6.0853,-6.0874,-6.0879,-6.0884,-6.09,-6.0906,-6.0834,-6.0834,-6.0834,0,-6.0589,-6.0623,-6.0627,-6.0653,-6.0666,-6.0662,-6.0688,-6.07,-6.0723,-6.0732,-6.0723,-6.0767,-6.0777,-6.0814,-6.0826,-6.0834,-6.0841,-6.0828,-6.0878,-6.0883,-6.0887,-6.0903,-6.0909,-6.0835,-6.0835,-6.0835,-6.0835,0,-6.064,-6.0664,-6.0683,-6.0709,-6.0724,-6.075,-6.0758,-6.0773,-6.0773,-6.078,-6.0811,-6.0824,-6.0846,-6.0855,-6.0854,-6.0893,-6.0887,-6.0878,-6.086,-6.0895,-6.091,-6.0916,-6.0837,-6.0837,-6.0836,-6.0836,0,0,-6.068,-6.0711,-6.0718,-6.0731,-6.0753,-6.0771,-6.0798,-6.0821,-6.0835,-6.0852,-6.0874,-6.0904,-6.0897,-6.0909,-6.091,-6.0928,-6.0965,-6.0917,-6.0917,-6.0926,-6.101,-6.1016,-6.1023,-6.0961,-6.0962,-6.0963,-6.1009,0,-6.0718,-6.0767,-6.0773,-6.0815,-6.0838,-6.0836,-6.086,-6.0876,-6.0884,-6.0904,-6.0912,-6.0934,-6.0922,-6.093,-6.0948,-6.0956,-6.0981,-6.0953,-6.0981,-6.0982,-6.0977,-6.1031,-6.1037,-6.1079,-6.1014,-6.1015,-6.1016,0,-6.0768,-6.079,-6.0836,-6.0858,-6.0868,-6.0889,-6.0912,-6.0932,-6.0951,-6.0955,-6.0971,-6.097,-6.0998,-6.098,-6.1018,-6.0999,-6.1011,-6.1018,-6.1019,-6.1021,-6.1001,-6.1035,-6.1093,-6.1099,-6.1025,-6.1024,-6.1024,0,-6.0794,-6.0835,-6.0868,-6.0879,-6.0905,-6.092,-6.0932,-6.095,-6.0965,-6.0985,-6.0995,-6.1018,-6.103,-6.1048,-6.1053,-6.104,-6.1092,-6.1074,-6.1096,-6.1096,-6.1106,-6.1105,-6.1167,-6.1115,-6.1114,-6.1114,-6.1114,0,-6.0836,-6.0864,-6.0881,-6.0901,-6.0933,-6.094,-6.0971,-6.0982,-6.0999,-6.1021,-6.102,-6.1041,-6.1047,-6.1069,-6.1074,-6.1106,-6.1111,-6.1115,-6.1116,-6.1115,-6.1115,-6.1122,-6.1119,-6.1116,-6.1116,-6.1115,-6.1115,0,-6.0869,-6.0882,-6.0918,-6.0942,-6.0948,-6.0971,-6.0991,-6.101,-6.102,-6.1048,-6.1055,-6.1069,-6.1095,-6.1103,-6.1133,-6.1136,-6.1174,-6.1172,-6.1168,-6.1168,-6.119,-6.1188,-6.1258,-6.1268,-6.1209,-6.121,-6.121,0,-6.0895,-6.0917,-6.0944,-6.0961,-6.0974,-6.0999,-6.1015,-6.1024,-6.1041,-6.1066,-6.1083,-6.111,-6.1131,-6.1173,-6.1185,-6.1209,-6.1207,-6.1231,-6.121,-6.121,-6.1208,-6.1207,-6.1209,-6.1234,-6.1234,-6.1235,-6.1235,0,-6.0939,-6.0945,-6.0969,-6.0997,-6.1018,-6.1039,-6.1059,-6.1072,-6.1084,-6.1103,-6.1132,-6.1149,-6.1182,-6.1208,-6.1233,-6.1244,-6.1242,-6.1242,-6.1248,-6.1247,-6.1244,-6.1247,-6.1178,-6.124,-6.1239,-6.1239,-6.1239,-6.1239,-6.0969,-6.099,-6.1014,-6.1042,-6.1059,-6.1079,-6.11,-6.1114,-6.1138,-6.1167,-6.1171,-6.1201,-6.1222,-6.1256,-6.1268,-6.1292,-6.1285,-6.1294,-6.1296,-6.1298,-6.1301,-6.1242,-6.1296,-6.1296,-6.1296,-6.1296,-6.1296,0,-6.1014,-6.103,-6.1056,-6.1087,-6.111,-6.1109,-6.1132,-6.1151,-6.1178,-6.1199,-6.1221,-6.1254,-6.1281,-6.1297,-6.1323,-6.1339,-6.1339,-6.1346,-6.1344,-6.1347,-6.1305,-6.1297,-6.1346,-6.1346,-6.1346,-6.1346,-6.1346,-6.1346,-6.104,-6.1075,-6.1085,-6.113,-6.1145,-6.1177,-6.1191,-6.121,-6.1227,-6.1265,-6.1288,-6.1299,-6.1318,-6.1346,-6.1371,-6.1374,-6.1384,-6.1392,-6.1395,-6.1355,-6.135,-6.1345,-6.1337,-6.1394,-6.1394,-6.1435,-6.1436,-6.1436]}]]